Tracking 35274 objects as of 11-Sep-2026
HD Live streaming from Space Station
objects crossing your sky now

SL-12 R/B(AUX MOTOR)


SL-12 R/B(AUX MOTOR) is no longer on orbit


NORAD ID: 15632
Int'l Code: 1985-024E
Launch date: March 22, 1985
Source: Commonwealth of Independent States (former USSR) (CIS)
Launch site: TYURATAM MISSILE AND SPACE COMPLEX (TTMTR)
Decay date: 1986-08-07

Note: This is a ROCKET BODY
Your satellite tracking list
Your tracking list is empty




NASA's NSSDC Master Catalog

Two Line Element Set (TLE):
1 15632U 85024  E 85285.93120727  .00004339 -30000-4 +00000-0 0  9992
2 15632 046.8647 202.8996 6466434 057.4010 349.2367 03.52452972004939
Source of the keplerian elements: AFSPC